Time,TemperatureF,DewpointF,PressureIn,WindDirection,WindDirectionDegrees,WindSpeedMPH,WindSpeedGustMPH,Humidity,HourlyPrecipIn,Conditions,Clouds,dailyrainin,SoftwareType,DateUTC
2013-01-01 00:02:00,20.0,17.0,30.29,NNE,17,2.0,7.0,87,0.00,,,0.00,,2013-01-01 06:02:00,
2013-01-01 00:12:00,20.0,17.0,30.29,NNE,17,2.0,7.0,87,0.00,,,0.00,,2013-01-01 06:12:00,
2013-01-01 00:22:00,20.0,17.0,30.29,NNE,17,3.0,8.0,87,0.00,,,0.00,,2013-01-01 06:22:00,
2013-01-01 00:32:00,20.0,17.0,30.29,NNE,17,3.0,8.0,87,0.00,,,0.00,,2013-01-01 06:32:00,
2013-01-01 00:42:00,20.0,17.0,30.29,NNE,17,3.0,8.0,87,0.00,,,0.00,,2013-01-01 06:42:00,
2013-01-01 00:52:00,20.0,17.0,30.28,NNE,17,1.0,6.0,87,0.00,,,0.00,,2013-01-01 06:52:00,
2013-01-01 01:02:00,20.0,17.0,30.29,NNE,17,2.0,5.0,87,0.00,,,0.00,,2013-01-01 07:02:00,
2013-01-01 01:12:00,20.0,17.0,30.28,NNE,17,1.0,9.0,88,0.00,,,0.00,,2013-01-01 07:12:00,
2013-01-01 01:22:00,20.0,17.0,30.28,NNE,17,1.0,9.0,88,0.00,,,0.00,,2013-01-01 07:22:00,
2013-01-01 01:32:00,20.0,17.0,30.28,NNE,17,1.0,9.0,88,0.00,,,0.00,,2013-01-01 07:32:00,
2013-01-01 01:42:00,20.0,17.0,30.28,NNE,17,1.0,9.0,88,0.00,,,0.00,,2013-01-01 07:42:00,
2013-01-01 01:52:00,19.0,16.0,30.30,NNE,17,2.0,6.0,88,0.00,,,0.00,,2013-01-01 07:52:00,
2013-01-01 02:02:00,19.0,16.0,30.30,NNE,17,1.0,8.0,88,0.00,,,0.00,,2013-01-01 08:02:00,
2013-01-01 02:12:00,19.0,16.0,30.30,NNE,17,1.0,8.0,88,0.00,,,0.00,,2013-01-01 08:12:00,
2013-01-01 02:22:00,19.0,16.0,30.31,NNE,17,0.0,8.0,88,0.00,,,0.00,,2013-01-01 08:22:00,
2013-01-01 02:32:00,18.0,15.0,30.31,NNE,17,0.0,9.0,87,0.00,,,0.00,,2013-01-01 08:32:00,
2013-01-01 02:42:00,18.0,15.0,30.31,NNE,17,2.0,9.0,87,0.00,,,0.00,,2013-01-01 08:42:00,
2013-01-01 02:53:00,18.0,15.0,30.31,NNE,17,2.0,9.0,87,0.00,,,0.00,,2013-01-01 08:53:00,
2013-01-01 03:02:00,18.0,15.0,30.32,NNE,17,3.0,7.0,87,0.00,,,0.00,,2013-01-01 09:02:00,
2013-01-01 03:12:00,18.0,15.0,30.32,NNE,17,3.0,7.0,87,0.00,,,0.00,,2013-01-01 09:12:00,
2013-01-01 03:22:00,17.0,14.0,30.32,NNE,17,3.0,9.0,87,0.00,,,0.00,,2013-01-01 09:22:00,
2013-01-01 03:32:00,17.0,14.0,30.32,NNE,17,3.0,9.0,86,0.00,,,0.00,,2013-01-01 09:32:00,
2013-01-01 03:42:00,17.0,14.0,30.32,NNE,17,3.0,9.0,86,0.00,,,0.00,,2013-01-01 09:42:00,
2013-01-01 03:52:00,17.0,14.0,30.31,NNE,17,5.0,9.0,86,0.00,,,0.00,,2013-01-01 09:52:00,
2013-01-01 04:02:00,17.0,14.0,30.31,NNE,17,2.0,9.0,86,0.00,,,0.00,,2013-01-01 10:02:00,
2013-01-01 04:12:00,16.0,13.0,30.29,NNE,17,2.0,7.0,86,0.00,,,0.00,,2013-01-01 10:12:00,
2013-01-01 04:22:00,16.0,13.0,30.29,NNE,17,2.0,7.0,86,0.00,,,0.00,,2013-01-01 10:22:00,
2013-01-01 04:32:00,16.0,12.0,30.30,NNE,17,2.0,10.0,85,0.00,,,0.00,,2013-01-01 10:32:00,
2013-01-01 04:42:00,16.0,12.0,30.30,NNE,17,2.0,10.0,85,0.00,,,0.00,,2013-01-01 10:42:00,
2013-01-01 04:53:00,16.0,12.0,30.31,NNE,17,1.0,7.0,84,0.00,,,0.00,,2013-01-01 10:53:00,
2013-01-01 05:02:00,15.0,11.0,30.32,NNE,17,2.0,8.0,83,0.00,,,0.00,,2013-01-01 11:02:00,
2013-01-01 05:12:00,15.0,11.0,30.32,NNE,17,2.0,8.0,83,0.00,,,0.00,,2013-01-01 11:12:00,
2013-01-01 05:22:00,15.0,11.0,30.32,NNE,17,1.0,8.0,82,0.00,,,0.00,,2013-01-01 11:22:00,
2013-01-01 05:32:00,14.0,9.0,30.31,NNE,17,1.0,8.0,81,0.00,,,0.00,,2013-01-01 11:32:00,
2013-01-01 05:42:00,14.0,9.0,30.31,NNE,17,1.0,8.0,81,0.00,,,0.00,,2013-01-01 11:42:00,
2013-01-01 05:53:00,14.0,10.0,30.32,NNE,17,0.0,4.0,82,0.00,,,0.00,,2013-01-01 11:53:00,
2013-01-01 06:02:00,13.0,9.0,30.33,NNE,17,1.0,5.0,83,0.00,,,0.00,,2013-01-01 12:02:00,
2013-01-01 06:12:00,13.0,9.0,30.33,NNE,17,1.0,5.0,83,0.00,,,0.00,,2013-01-01 12:12:00,
2013-01-01 06:22:00,13.0,9.0,30.33,NNE,17,1.0,7.0,83,0.00,,,0.00,,2013-01-01 12:22:00,
2013-01-01 06:32:00,13.0,9.0,30.33,NNE,17,1.0,7.0,83,0.00,,,0.00,,2013-01-01 12:32:00,
2013-01-01 06:42:00,13.0,9.0,30.33,NNE,17,1.0,7.0,83,0.00,,,0.00,,2013-01-01 12:42:00,
2013-01-01 06:53:00,12.0,8.0,30.35,NNE,17,2.0,6.0,83,0.00,,,0.00,,2013-01-01 12:53:00,
2013-01-01 07:02:00,12.0,8.0,30.36,NNE,17,1.0,6.0,83,0.00,,,0.00,,2013-01-01 13:02:00,
2013-01-01 07:12:00,12.0,8.0,30.36,NNE,17,1.0,6.0,83,0.00,,,0.00,,2013-01-01 13:12:00,
2013-01-01 07:22:00,12.0,8.0,30.37,NNE,17,0.0,3.0,82,0.00,,,0.00,,2013-01-01 13:22:00,
2013-01-01 07:32:00,11.0,7.0,30.37,NNE,17,0.0,0.0,83,0.00,,,0.00,,2013-01-01 13:32:00,
2013-01-01 07:42:00,11.0,7.0,30.37,NNE,17,0.0,0.0,83,0.00,,,0.00,,2013-01-01 13:42:00,
2013-01-01 07:53:00,11.0,7.0,30.39,NNE,17,0.0,2.0,83,0.00,,,0.00,,2013-01-01 13:53:00,
2013-01-01 08:02:00,11.0,7.0,30.40,NNE,17,0.0,0.0,83,0.00,,,0.00,,2013-01-01 14:02:00,
2013-01-01 08:12:00,11.0,7.0,30.40,NNE,17,0.0,0.0,83,0.00,,,0.00,,2013-01-01 14:12:00,
2013-01-01 08:22:00,11.0,7.0,30.41,NNE,17,0.0,0.0,84,0.00,,,0.00,,2013-01-01 14:22:00,
2013-01-01 08:32:00,11.0,7.0,30.40,NNE,17,0.0,1.0,84,0.00,,,0.00,,2013-01-01 14:32:00,
2013-01-01 08:42:00,11.0,7.0,30.40,NNE,17,0.0,1.0,84,0.00,,,0.00,,2013-01-01 14:42:00,
2013-01-01 08:53:00,11.0,7.0,30.41,NNE,17,0.0,1.0,83,0.00,,,0.00,,2013-01-01 14:53:00,
2013-01-01 09:03:00,12.0,8.0,30.42,NNE,17,0.0,0.0,83,0.00,,,0.00,,2013-01-01 15:03:00,
2013-01-01 09:12:00,12.0,8.0,30.42,NNE,17,0.0,0.0,83,0.00,,,0.00,,2013-01-01 15:12:00,
2013-01-01 09:22:00,12.0,7.0,30.42,NNE,17,0.0,4.0,81,0.00,,,0.00,,2013-01-01 15:22:00,
2013-01-01 09:33:00,12.0,7.0,30.42,NNE,17,1.0,5.0,81,0.00,,,0.00,,2013-01-01 15:33:00,
2013-01-01 09:42:00,12.0,7.0,30.42,NNE,17,1.0,5.0,81,0.00,,,0.00,,2013-01-01 15:42:00,
2013-01-01 09:53:00,13.0,8.0,30.41,NNE,17,1.0,4.0,81,0.00,,,0.00,,2013-01-01 15:53:00,
2013-01-01 10:02:00,14.0,9.0,30.42,NNE,17,0.0,5.0,80,0.00,,,0.00,,2013-01-01 16:02:00,
2013-01-01 10:12:00,14.0,9.0,30.42,NNE,17,0.0,5.0,80,0.00,,,0.00,,2013-01-01 16:12:00,
2013-01-01 10:22:00,14.0,9.0,30.42,NNE,17,0.0,7.0,79,0.00,,,0.00,,2013-01-01 16:22:00,
2013-01-01 10:33:00,15.0,9.0,30.43,NNE,17,1.0,8.0,77,0.00,,,0.00,,2013-01-01 16:33:00,
2013-01-01 10:42:00,15.0,9.0,30.43,NNE,17,1.0,8.0,77,0.00,,,0.00,,2013-01-01 16:42:00,
2013-01-01 10:53:00,16.0,10.0,30.43,NNE,17,1.0,5.0,77,0.00,,,0.00,,2013-01-01 16:53:00,
2013-01-01 11:02:00,17.0,11.0,30.44,NNE,17,0.0,5.0,76,0.00,,,0.00,,2013-01-01 17:02:00,
2013-01-01 11:12:00,17.0,11.0,30.44,NNE,17,0.0,5.0,76,0.00,,,0.00,,2013-01-01 17:12:00,
2013-01-01 11:22:00,18.0,11.0,30.43,NNE,17,1.0,5.0,73,0.00,,,0.00,,2013-01-01 17:22:00,
2013-01-01 11:33:00,19.0,11.0,30.43,NNE,17,2.0,5.0,71,0.00,,,0.00,,2013-01-01 17:33:00,
2013-01-01 11:43:00,19.0,11.0,30.43,NNE,17,2.0,5.0,71,0.00,,,0.00,,2013-01-01 17:43:00,
2013-01-01 11:53:00,18.0,10.0,30.42,NNE,17,2.0,8.0,71,0.00,,,0.00,,2013-01-01 17:53:00,
2013-01-01 12:03:00,19.0,11.0,30.41,NNE,17,0.0,7.0,71,0.00,,,0.00,,2013-01-01 18:03:00,
2013-01-01 12:12:00,19.0,11.0,30.41,NNE,17,0.0,7.0,71,0.00,,,0.00,,2013-01-01 18:12:00,
2013-01-01 12:22:00,20.0,12.0,30.40,NNE,17,0.0,7.0,70,0.00,,,0.00,,2013-01-01 18:22:00,
2013-01-01 12:33:00,20.0,11.0,30.40,NNE,17,1.0,7.0,69,0.00,,,0.00,,2013-01-01 18:33:00,
2013-01-01 12:42:00,20.0,11.0,30.40,NNE,17,1.0,7.0,69,0.00,,,0.00,,2013-01-01 18:42:00,
2013-01-01 12:53:00,20.0,11.0,30.40,NNE,17,1.0,7.0,69,0.00,,,0.00,,2013-01-01 18:53:00,
2013-01-01 13:02:00,18.0,10.0,30.40,NNE,17,3.0,8.0,70,0.00,,,0.00,,2013-01-01 19:02:00,
2013-01-01 13:12:00,18.0,10.0,30.40,NNE,17,3.0,8.0,70,0.00,,,0.00,,2013-01-01 19:12:00,
2013-01-01 13:22:00,20.0,11.0,30.40,NNE,17,0.0,6.0,69,0.00,,,0.00,,2013-01-01 19:22:00,
2013-01-01 13:32:00,20.0,11.0,30.40,NW,306,3.0,7.0,69,0.00,,,0.00,,2013-01-01 19:32:00,
2013-01-01 13:42:00,20.0,11.0,30.40,NW,306,3.0,7.0,69,0.00,,,0.00,,2013-01-01 19:42:00,
2013-01-01 13:53:00,20.0,11.0,30.40,NW,315,2.0,6.0,67,0.00,,,0.00,,2013-01-01 19:53:00,
2013-01-01 14:02:00,20.0,11.0,30.39,NW,315,2.0,8.0,66,0.00,,,0.00,,2013-01-01 20:02:00,
2013-01-01 14:12:00,20.0,11.0,30.39,NW,315,2.0,8.0,66,0.00,,,0.00,,2013-01-01 20:12:00,
2013-01-01 14:23:00,20.0,11.0,30.40,NW,316,2.0,6.0,67,0.00,,,0.00,,2013-01-01 20:23:00,
2013-01-01 14:32:00,20.0,11.0,30.39,NW,311,1.0,6.0,67,0.00,,,0.00,,2013-01-01 20:32:00,
2013-01-01 14:42:00,20.0,11.0,30.39,NW,311,1.0,6.0,67,0.00,,,0.00,,2013-01-01 20:42:00,
2013-01-01 14:53:00,20.0,10.0,30.40,NW,315,0.0,7.0,65,0.00,,,0.00,,2013-01-01 20:53:00,
2013-01-01 15:03:00,20.0,10.0,30.40,NW,309,0.0,8.0,65,0.00,,,0.00,,2013-01-01 21:03:00,
2013-01-01 15:12:00,20.0,10.0,30.40,NNW,334,0.0,6.0,64,0.00,,,0.00,,2013-01-01 21:12:00,
2013-01-01 15:22:00,20.0,10.0,30.40,NNW,334,0.0,6.0,64,0.00,,,0.00,,2013-01-01 21:22:00,
2013-01-01 15:33:00,20.0,10.0,30.40,NNW,333,0.0,5.0,64,0.00,,,0.00,,2013-01-01 21:33:00,
2013-01-01 15:42:00,20.0,10.0,30.40,NNW,333,0.0,5.0,64,0.00,,,0.00,,2013-01-01 21:42:00,
2013-01-01 15:53:00,20.0,9.0,30.39,NW,322,2.0,6.0,63,0.00,,,0.00,,2013-01-01 21:53:00,
2013-01-01 16:02:00,19.0,9.0,30.40,NW,313,0.0,5.0,64,0.00,,,0.00,,2013-01-01 22:02:00,
2013-01-01 16:12:00,19.0,9.0,30.40,NW,313,0.0,5.0,64,0.00,,,0.00,,2013-01-01 22:12:00,
2013-01-01 16:22:00,19.0,9.0,30.40,NW,313,0.0,5.0,64,0.00,,,0.00,,2013-01-01 22:22:00,
2013-01-01 16:33:00,19.0,9.0,30.39,NW,312,0.0,4.0,64,0.00,,,0.00,,2013-01-01 22:33:00,
2013-01-01 16:42:00,19.0,9.0,30.39,NW,312,0.0,4.0,64,0.00,,,0.00,,2013-01-01 22:42:00,
2013-01-01 16:52:00,19.0,9.0,30.39,NW,313,1.0,4.0,64,0.00,,,0.00,,2013-01-01 22:52:00,
2013-01-01 17:02:00,19.0,9.0,30.38,NW,313,0.0,5.0,63,0.00,,,0.00,,2013-01-01 23:02:00,
2013-01-01 17:12:00,19.0,9.0,30.38,NW,313,0.0,5.0,63,0.00,,,0.00,,2013-01-01 23:12:00,
2013-01-01 17:22:00,19.0,9.0,30.39,NW,313,0.0,0.0,65,0.00,,,0.00,,2013-01-01 23:22:00,
2013-01-01 17:32:00,19.0,10.0,30.39,NW,313,0.0,0.0,66,0.00,,,0.00,,2013-01-01 23:32:00,
2013-01-01 17:42:00,19.0,10.0,30.39,NW,313,0.0,0.0,66,0.00,,,0.00,,2013-01-01 23:42:00,
2013-01-01 17:53:00,18.0,9.0,30.38,NW,313,0.0,0.0,67,0.00,,,0.00,,2013-01-01 23:53:00,
2013-01-01 18:02:00,18.0,10.0,30.38,NW,313,0.0,0.0,69,0.00,,,0.00,,2013-01-02 00:02:00,
2013-01-01 18:12:00,18.0,10.0,30.38,NW,313,0.0,0.0,69,0.00,,,0.00,,2013-01-02 00:12:00,
2013-01-01 18:22:00,17.0,9.0,30.38,NW,313,0.0,0.0,70,0.00,,,0.00,,2013-01-02 00:22:00,
2013-01-01 18:32:00,17.0,9.0,30.38,NW,313,0.0,0.0,70,0.00,,,0.00,,2013-01-02 00:32:00,
2013-01-01 18:42:00,17.0,9.0,30.38,NW,313,0.0,0.0,70,0.00,,,0.00,,2013-01-02 00:42:00,
2013-01-01 18:53:00,16.0,8.0,30.37,NW,313,0.0,0.0,70,0.00,,,0.00,,2013-01-02 00:53:00,
2013-01-01 19:02:00,16.0,9.0,30.39,NW,313,0.0,0.0,72,0.00,,,0.00,,2013-01-02 01:02:00,
2013-01-01 19:12:00,16.0,9.0,30.39,NW,313,0.0,0.0,72,0.00,,,0.00,,2013-01-02 01:12:00,
2013-01-01 19:22:00,16.0,9.0,30.39,NW,313,0.0,0.0,73,0.00,,,0.00,,2013-01-02 01:22:00,
2013-01-01 19:32:00,16.0,9.0,30.39,NW,313,0.0,0.0,74,0.00,,,0.00,,2013-01-02 01:32:00,
2013-01-01 19:42:00,16.0,9.0,30.39,NW,313,0.0,0.0,74,0.00,,,0.00,,2013-01-02 01:42:00,
2013-01-01 19:52:00,15.0,8.0,30.39,NW,313,0.0,0.0,74,0.00,,,0.00,,2013-01-02 01:52:00,
2013-01-01 20:02:00,15.0,9.0,30.39,NW,313,0.0,0.0,75,0.00,,,0.00,,2013-01-02 02:02:00,
2013-01-01 20:12:00,15.0,9.0,30.39,NW,313,0.0,0.0,75,0.00,,,0.00,,2013-01-02 02:12:00,
2013-01-01 20:22:00,15.0,9.0,30.40,NW,313,0.0,0.0,76,0.00,,,0.00,,2013-01-02 02:22:00,
2013-01-01 20:32:00,14.0,8.0,30.40,NW,313,0.0,0.0,76,0.00,,,0.00,,2013-01-02 02:32:00,
2013-01-01 20:42:00,14.0,8.0,30.40,NW,313,0.0,0.0,76,0.00,,,0.00,,2013-01-02 02:42:00,
2013-01-01 20:53:00,14.0,8.0,30.39,NW,313,0.0,0.0,76,0.00,,,0.00,,2013-01-02 02:53:00,
2013-01-01 21:02:00,14.0,8.0,30.39,NW,313,0.0,0.0,77,0.00,,,0.00,,2013-01-02 03:02:00,
2013-01-01 21:12:00,14.0,8.0,30.39,NW,313,0.0,0.0,77,0.00,,,0.00,,2013-01-02 03:12:00,
2013-01-01 21:22:00,13.0,7.0,30.39,NW,313,0.0,0.0,77,0.00,,,0.00,,2013-01-02 03:22:00,
2013-01-01 21:32:00,13.0,7.0,30.39,NW,313,0.0,0.0,78,0.00,,,0.00,,2013-01-02 03:32:00,
2013-01-01 21:42:00,13.0,7.0,30.39,NW,313,0.0,0.0,78,0.00,,,0.00,,2013-01-02 03:42:00,
2013-01-01 21:53:00,13.0,7.0,30.38,NW,313,0.0,1.0,77,0.00,,,0.00,,2013-01-02 03:53:00,
2013-01-01 22:02:00,13.0,7.0,30.38,NW,313,0.0,0.0,77,0.00,,,0.00,,2013-01-02 04:02:00,
2013-01-01 22:12:00,13.0,7.0,30.38,NW,313,0.0,0.0,77,0.00,,,0.00,,2013-01-02 04:12:00,
2013-01-01 22:22:00,13.0,7.0,30.38,NW,313,0.0,0.0,78,0.00,,,0.00,,2013-01-02 04:22:00,
2013-01-01 22:32:00,12.0,6.0,30.37,NW,313,0.0,0.0,78,0.00,,,0.00,,2013-01-02 04:32:00,
2013-01-01 22:42:00,12.0,6.0,30.37,NW,313,0.0,0.0,78,0.00,,,0.00,,2013-01-02 04:42:00,
2013-01-01 22:52:00,12.0,6.0,30.38,NW,313,0.0,0.0,78,0.00,,,0.00,,2013-01-02 04:52:00,
2013-01-01 23:03:00,12.0,7.0,30.37,NW,313,0.0,0.0,79,0.00,,,0.00,,2013-01-02 05:03:00,
2013-01-01 23:12:00,12.0,7.0,30.37,NW,313,0.0,0.0,79,0.00,,,0.00,,2013-01-02 05:12:00,
2013-01-01 23:22:00,11.0,6.0,30.37,NW,313,0.0,0.0,79,0.00,,,0.00,,2013-01-02 05:22:00,
2013-01-01 23:33:00,11.0,6.0,30.39,NW,313,0.0,0.0,80,0.00,,,0.00,,2013-01-02 05:33:00,
2013-01-01 23:42:00,11.0,6.0,30.39,NW,313,0.0,0.0,80,0.00,,,0.00,,2013-01-02 05:42:00,
2013-01-01 23:53:00,11.0,6.0,30.40,NW,313,0.0,0.0,80,0.00,,,0.00,,2013-01-02 05:53:00,